Location: Marcé
(47.5801°N, 0.3280°W)
Time: 14:38:26
(UTC+01:00)

Transit 2A - Pass Details

Date: 08 December 2021
Orbit: 591 x 967 km, 66.7° (Epoch: 21 January)

Event Time Altitude Azimuth Distance (km) Brightness Sun altitude
Rises 04:16:15 0° 303° (WNW) 3,567 - -42.7°
Reaches altitude 10° 04:20:26 10° 330° (NNW) 2,677 - -42.1°
Maximum altitude 04:23:16 13° 357° (N) 2,476 - -41.6°
Exits shadow 04:25:20 11° 17° (NNE) 2,606 8.9 -41.2°
Drops below altitude 10° 04:26:08 10° 24° (NNE) 2,713 9.1 -41.1°
Sets 04:30:26 0° 51° (NE) 3,659 10.2 -40.4°
